{"data":{"norad_id":26857,"intl_designator":"2001-026A","name":"OMNI-M1","alt_names":[],"object_type":"PAYLOAD","status":"ACTIVE","operator":null,"country":"NICO","launch_date":"2001-06-19","launch_site_code":"AFETR","launch_vehicle":null,"mission":null,"orbit_class":"UNKNOWN","rcs_meters":33.183,"size_class":null,"mass_kg":null,"dimensions":null,"purposes":[],"wikipedia_slug":null,"has_3d_model":false,"image_url":null,"decayed_at":null,"tle_current":{"epoch":"2026-09-19T12:03:58.388832Z","epoch_age_seconds":98323,"freshness":"FRESH","line1":"1 26857U 01026A   26262.50275913 -.00000003  00000+0  00000+0 0  9999","line2":"2 26857  44.8075 223.5277 0014403  69.3116 290.8568  3.92403132209279","mean_motion":3.92403132,"eccentricity":0.0014403,"inclination_deg":44.8075,"raan_deg":223.5277,"arg_perigee_deg":69.3116,"mean_anomaly_deg":290.8568,"bstar":0,"rev_number":20927,"period_min":366.96954804122,"perigee_km":10576.463696895,"apogee_km":10625.373564545,"semimajor_km":16979.05563072,"source":"CELESTRAK","updated_at":"2026-09-20T09:00:13.577477Z"}}}